ACA1189 CYQT-CYYZ

Flight info

Callsign ACA1189
Flight time N/A
Altitude 35000
Route OTNIK BOXUM7
Aircraft B738/M-SDE2E3FGHIRWXY/LB1

Departure

Time 2026-04-30 22:00
Airport Thunder Bay International Airport (CYQT)

Arrival

Time N/A
Airport Toronto Pearson International Airport (CYYZ)
Time Latitude Longitude Altitude Speed Heading
2026-04-30 21:48 48.37248 -89.31262 651 ft 0 kts 128°
2026-04-30 21:52 48.37253 -89.31272 651 ft 2 kts 128°
2026-04-30 21:53 48.37263 -89.31292 652 ft 2 kts 128°
2026-04-30 21:53 48.37273 -89.31311 652 ft 2 kts 128°
2026-04-30 21:53 48.37283 -89.31330 652 ft 2 kts 128°
2026-04-30 21:53 48.37291 -89.31345 652 ft 0 kts 128°
2026-04-30 21:56 48.37291 -89.31342 652 ft 2 kts 109°
2026-04-30 21:56 48.37306 -89.31309 654 ft 7 kts 25°
2026-04-30 21:56 48.37403 -89.31220 651 ft 21 kts 38°
2026-04-30 21:57 48.37476 -89.31195 652 ft 10 kts 344°
2026-04-30 21:57 48.37500 -89.31305 652 ft 17 kts 255°
2026-04-30 21:57 48.37450 -89.31523 651 ft 28 kts 250°
2026-04-30 21:57 48.37382 -89.31818 653 ft 30 kts 250°
2026-04-30 21:58 48.37314 -89.32104 659 ft 28 kts 250°
2026-04-30 21:58 48.37251 -89.32370 658 ft 26 kts 250°
2026-04-30 21:58 48.37191 -89.32623 658 ft 25 kts 250°
2026-04-30 21:58 48.37135 -89.32859 658 ft 23 kts 250°
2026-04-30 21:59 48.37082 -89.33083 660 ft 22 kts 250°
2026-04-30 21:59 48.37052 -89.33279 663 ft 15 kts 273°
2026-04-30 21:59 48.37037 -89.33317 663 ft 1 kts 167°
2026-04-30 22:00 48.37060 -89.33178 662 ft 41 kts 71°
2026-04-30 22:00 48.37575 -89.31012 870 ft 153 kts 70°
2026-04-30 22:00 48.37940 -89.29454 1644 ft 162 kts 69°
2026-04-30 22:01 48.38317 -89.27855 2480 ft 168 kts 68°
2026-04-30 22:01 48.38760 -89.26089 2954 ft 195 kts 70°
2026-04-30 22:01 48.38756 -89.23921 3210 ft 225 kts 108°
2026-04-30 22:01 48.38049 -89.21711 3676 ft 239 kts 116°
2026-04-30 22:02 48.37263 -89.19426 4073 ft 259 kts 116°
2026-04-30 22:02 48.36425 -89.16966 4805 ft 268 kts 116°
2026-04-30 22:02 48.35864 -89.15302 5460 ft 268 kts 115°
2026-04-30 22:02 48.34746 -89.11945 6726 ft 272 kts 115°
2026-04-30 22:03 48.33899 -89.09370 7557 ft 277 kts 115°
2026-04-30 22:03 48.33038 -89.06733 8401 ft 283 kts 115°
2026-04-30 22:03 48.32464 -89.04965 8963 ft 286 kts 114°
2026-04-30 22:03 48.31584 -89.02247 9822 ft 291 kts 114°
2026-04-30 22:04 48.30687 -88.99469 10489 ft 302 kts 114°
2026-04-30 22:04 48.29742 -88.96526 10699 ft 328 kts 114°
2026-04-30 22:04 48.27621 -88.89928 11238 ft 369 kts 114°
2026-04-30 22:05 48.26488 -88.86413 11916 ft 375 kts 114°
2026-04-30 22:05 48.25345 -88.82870 12727 ft 377 kts 114°
2026-04-30 22:05 48.24206 -88.79347 13516 ft 380 kts 115°
2026-04-30 22:05 48.23044 -88.75751 14215 ft 384 kts 115°
2026-04-30 22:06 48.21867 -88.72114 14867 ft 388 kts 115°
2026-04-30 22:06 48.19482 -88.64754 16178 ft 395 kts 115°
2026-04-30 22:06 48.18287 -88.61076 16805 ft 399 kts 115°
2026-04-30 22:07 48.17062 -88.57309 17424 ft 403 kts 115°
2026-04-30 22:07 48.15822 -88.53501 18056 ft 407 kts 115°
2026-04-30 22:07 48.14567 -88.49650 18644 ft 411 kts 115°
2026-04-30 22:07 48.13316 -88.45822 19183 ft 414 kts 115°
2026-04-30 22:08 48.12042 -88.41929 19733 ft 417 kts 116°
2026-04-30 22:08 48.10759 -88.38011 20276 ft 420 kts 116°
2026-04-30 22:08 48.09465 -88.34069 20805 ft 423 kts 116°
2026-04-30 22:08 48.08179 -88.30154 21310 ft 426 kts 116°
2026-04-30 22:09 48.06864 -88.26159 21803 ft 429 kts 116°
2026-04-30 22:09 48.05538 -88.22137 22312 ft 432 kts 116°
2026-04-30 22:09 48.04216 -88.18133 22785 ft 434 kts 116°
2026-04-30 22:09 48.02868 -88.14055 23259 ft 437 kts 116°
2026-04-30 22:10 48.01510 -88.09958 23714 ft 440 kts 116°
2026-04-30 22:10 48.00160 -88.05887 24078 ft 443 kts 116°
2026-04-30 22:10 47.98781 -88.01737 24387 ft 448 kts 116°
2026-04-30 22:10 47.97382 -87.97531 24321 ft 453 kts 116°
2026-04-30 22:11 47.94613 -87.89232 23823 ft 441 kts 116°
2026-04-30 22:11 47.93250 -87.85156 23566 ft 439 kts 117°
2026-04-30 22:11 47.91879 -87.81064 23239 ft 440 kts 117°
2026-04-30 22:12 47.90498 -87.76948 22810 ft 442 kts 117°
2026-04-30 22:12 47.89146 -87.72923 22397 ft 436 kts 117°
2026-04-30 22:12 47.87795 -87.68908 21967 ft 429 kts 117°
2026-04-30 22:12 47.86459 -87.64944 21570 ft 427 kts 117°
2026-04-30 22:13 47.85122 -87.60986 21178 ft 426 kts 117°
2026-04-30 22:13 47.83792 -87.57051 20785 ft 425 kts 117°
2026-04-30 22:13 47.82475 -87.53163 20391 ft 423 kts 117°
2026-04-30 22:13 47.81149 -87.49253 20015 ft 421 kts 117°
2026-04-30 22:14 47.79821 -87.45343 19633 ft 420 kts 117°
2026-04-30 22:14 47.78522 -87.41522 19266 ft 418 kts 117°
2026-04-30 22:14 47.77211 -87.37676 18893 ft 415 kts 117°
2026-04-30 22:14 47.75905 -87.33845 18526 ft 413 kts 117°
2026-04-30 22:15 47.74603 -87.30036 18154 ft 410 kts 117°
2026-04-30 22:15 47.73326 -87.26302 17071 ft 416 kts 117°
2026-04-30 22:15 47.71990 -87.22403 15788 ft 427 kts 117°
2026-04-30 22:15 47.70655 -87.18514 15303 ft 409 kts 117°
2026-04-30 22:16 47.69401 -87.14865 14970 ft 385 kts 117°
2026-04-30 22:16 47.68191 -87.11348 14072 ft 381 kts 117°
2026-04-30 22:17 47.64764 -87.01414 14113 ft 368 kts 117°
2026-04-30 22:17 47.63570 -86.97967 14153 ft 381 kts 117°
2026-04-30 22:17 47.61103 -86.90850 14177 ft 391 kts 117°
2026-04-30 22:18 47.59858 -86.87266 13979 ft 389 kts 117°
2026-04-30 22:18 47.57410 -86.80230 13141 ft 382 kts 117°
2026-04-30 22:19 47.54973 -86.73246 12320 ft 379 kts 117°
2026-04-30 22:19 47.53775 -86.69819 11928 ft 378 kts 117°
2026-04-30 22:19 47.51362 -86.62933 11144 ft 375 kts 117°
2026-04-30 22:20 47.50156 -86.59497 10557 ft 374 kts 117°
2026-04-30 22:20 47.47785 -86.52757 10144 ft 369 kts 117°
2026-04-30 22:20 47.46602 -86.49401 10101 ft 367 kts 117°
2026-04-30 22:21 47.45422 -86.46055 10098 ft 368 kts 117°
2026-04-30 22:21 47.44233 -86.42691 10100 ft 368 kts 117°
2026-04-30 22:21 47.43045 -86.39331 10090 ft 368 kts 117°